Location: Chavenne
(46.6022°N, 3.2951°E)
Time: 17:54:10
(UTC+00:00)

Cosmos 1726 - Pass Details

Date: 09 April 2020
Orbit: 482 x 500 km, 82.5° (Epoch: 02 June)

Event Time Altitude Azimuth Distance (km) Brightness Sun altitude
Rises 19:00:30 0° 190° (S) 2,580 5.7 -6.3°
Reaches altitude 10° 19:02:36 10° 191° (SSW) 1,701 4.8 -6.7°
Maximum altitude 19:06:20 81° 279° (W) 513 2.3 -7.3°
Drops below altitude 10° 19:10:05 10° 7° (N) 1,711 5.0 -7.9°
Sets 19:12:13 0° 9° (N) 2,597 5.9 -8.2°
